Location: Jackson Park
(37.2862°N, 79.9123°W)
Time: 00:13:54
(UTC+00:00)

Vanguard 2 - Visible Passes

Search period start: 12 May 2026 00:00
Search period end: 22 May 2026 00:00
Orbit: 553 x 2895 km, 32.9° (Epoch: 11 May)

Date Brightness Start Highest point End Pass type
(mag) Time Alt. Az. Time Alt. Az. Time Alt. Az.
12 May 10.8 05:49:05 31° SE 05:49:05 31° SE 06:02:00 10° E visible
12 May 10.3 07:49:56 31° SW 07:59:28 58° SSE 08:13:22 10° E visible
13 May 10.6 05:59:14 37° SSE 05:59:57 37° SE 06:14:19 10° E visible
13 May 10.2 08:00:05 28° SW 08:11:06 63° SSE 08:25:11 10° E visible
14 May 11.5 04:08:29 13° ESE 04:08:29 13° ESE 04:10:56 10° E visible
14 May 10.4 06:09:19 43° SSE 06:11:21 44° SSE 06:26:26 10° E visible
14 May 10.2 08:10:09 24° WSW 08:22:47 68° SSE 08:36:58 10° E visible
15 May 11.3 04:18:29 19° ESE 04:18:29 19° ESE 04:24:30 10° E visible
15 May 10.3 06:19:19 46° S 06:22:48 50° SSE 06:38:24 10° E visible
15 May 10.2 08:20:09 19° WSW 08:34:30 72° S 08:48:43 10° E visible
16 May 11.0 04:28:24 25° ESE 04:28:24 25° ESE 04:37:21 10° E visible
16 May 10.3 06:29:14 46° SSW 06:34:18 57° SSE 06:50:16 10° E visible
16 May 10.2 08:30:03 14° WSW 08:46:15 75° S 09:00:27 10° E visible
17 May 10.8 04:38:14 33° SE 04:38:14 33° SE 04:49:48 10° E visible
17 May 10.2 06:39:03 43° SW 06:45:52 63° SSE 07:02:05 10° E visible
17 May 10.2 08:40:13 10° W 08:58:00 76° S 09:12:11 10° E visible
18 May 10.5 04:47:57 40° SE 04:47:57 40° SE 05:01:59 10° E visible
18 May 10.2 06:48:45 37° SW 06:57:29 68° SSE 07:13:53 10° E visible
18 May 10.2 08:51:59 10° W 09:09:46 75° S 09:23:53 10° ESE visible
19 May 11.4 02:56:43 12° E 02:56:43 12° E 02:58:11 10° E visible
19 May 10.2 04:57:31 47° SSE 04:57:42 47° SSE 05:13:59 10° E visible
19 May 10.2 06:58:18 29° WSW 07:09:10 72° SSE 07:25:39 10° E visible
19 May 10.2 09:03:45 10° W 09:21:29 74° S 09:35:32 10° ESE visible
20 May 11.1 03:06:07 18° ESE 03:06:07 18° ESE 03:11:24 10° E visible
20 May 10.1 05:06:53 51° S 05:09:06 54° SSE 05:25:54 10° E visible
20 May 10.2 07:07:39 21° WSW 07:20:53 75° S 07:37:25 10° E visible
20 May 10.2 09:15:32 10° W 09:33:11 71° SSW 09:47:10 10° ESE visible
21 May 10.8 03:15:12 26° ESE 03:15:12 26° ESE 03:24:03 10° E visible
21 May 10.1 05:15:56 48° SSW 05:20:35 60° SSE 05:37:45 10° E visible
21 May 10.2 07:16:40 13° WSW 07:32:37 76° S 07:49:09 10° E visible
21 May 10.3 09:27:20 10° W 09:44:48 66° SSW 09:58:42 10° ESE visible
